TimeHST,TemperatureF,Dew PointF,Humidity,Sea Level PressureIn,VisibilityMPH,Wind Direction,Wind SpeedMPH,Gust SpeedMPH,PrecipitationIn,Events,Conditions,WindDirDegrees,DateUTC
12:55 AM,71.4,62.4,73,30.00,10.0,NW,3.5,-,N/A,,Scattered Clouds,320,2013-07-28 10:55:00
1:55 AM,70.9,63.7,78,29.99,10.0,WNW,3.5,-,N/A,,Overcast,290,2013-07-28 11:55:00
2:33 AM,73.4,64.4,73,29.98,10.0,Variable,6.9,-,N/A,,Light Drizzle,0,2013-07-28 12:33:00
2:55 AM,71.6,66.2,83,29.98,9.0,East,3.5,-,0.01,,Light Drizzle,100,2013-07-28 12:55:00
2:58 AM,71.6,66.2,83,29.98,10.0,Calm,Calm,-,N/A,,Mostly Cloudy,0,2013-07-28 12:58:00
3:17 AM,69.8,66.2,88,29.98,10.0,NW,4.6,-,N/A,,Heavy Drizzle,310,2013-07-28 13:17:00
3:31 AM,71.6,66.2,83,29.98,10.0,Variable,5.8,-,N/A,,Scattered Clouds,0,2013-07-28 13:31:00
3:54 AM,71.6,66.2,83,29.98,10.0,East,5.8,-,N/A,,Light Drizzle,80,2013-07-28 13:54:00
3:55 AM,72.3,66.0,80,29.98,10.0,East,6.9,-,0.00,,Light Drizzle,100,2013-07-28 13:55:00
4:10 AM,71.6,66.2,83,29.97,10.0,East,4.6,-,N/A,,Mostly Cloudy,90,2013-07-28 14:10:00
4:55 AM,69.1,65.1,87,29.97,10.0,WNW,5.8,-,0.00,,Scattered Clouds,290,2013-07-28 14:55:00
5:55 AM,69.8,64.6,83,29.98,10.0,Calm,Calm,-,N/A,,Mostly Cloudy,0,2013-07-28 15:55:00
6:47 AM,69.8,64.4,83,29.99,10.0,NW,3.5,-,N/A,,Light Drizzle,310,2013-07-28 16:47:00
6:55 AM,69.3,64.8,86,29.99,10.0,Calm,Calm,-,0.00,,Light Drizzle,0,2013-07-28 16:55:00
6:58 AM,69.8,64.4,83,30.00,10.0,Calm,Calm,-,N/A,,Scattered Clouds,0,2013-07-28 16:58:00
7:55 AM,72.0,66.4,83,30.00,10.0,Calm,Calm,-,0.00,,Mostly Cloudy,0,2013-07-28 17:55:00
8:30 AM,73.4,66.2,78,30.00,10.0,Calm,Calm,-,N/A,,Mostly Cloudy,0,2013-07-28 18:30:00
8:31 AM,73.4,66.2,78,30.01,10.0,Calm,Calm,-,N/A,,Mostly Cloudy,0,2013-07-28 18:31:00
8:34 AM,73.4,66.2,78,30.01,8.0,East,5.8,-,N/A,,Light Drizzle,90,2013-07-28 18:34:00
8:54 AM,73.4,66.2,78,30.01,6.0,East,5.8,-,N/A,,Light Drizzle,90,2013-07-28 18:54:00
8:55 AM,72.7,66.9,82,30.01,6.0,East,5.8,-,0.00,,Light Drizzle,100,2013-07-28 18:55:00
9:09 AM,71.6,68.0,88,30.01,10.0,Calm,Calm,-,N/A,,Overcast,0,2013-07-28 19:09:00
9:55 AM,76.3,67.8,75,30.01,10.0,ESE,8.1,-,0.00,,Mostly Cloudy,120,2013-07-28 19:55:00
10:55 AM,77.0,65.5,67,29.99,10.0,ENE,8.1,-,N/A,,Overcast,60,2013-07-28 20:55:00
11:55 AM,81.0,62.4,53,29.97,10.0,East,12.7,-,N/A,,Mostly Cloudy,80,2013-07-28 21:55:00
12:55 PM,82.6,62.8,51,29.96,10.0,East,16.1,-,N/A,,Scattered Clouds,90,2013-07-28 22:55:00
1:55 PM,83.1,62.6,50,29.95,10.0,East,9.2,18.4,N/A,,Clear,90,2013-07-28 23:55:00
2:55 PM,83.5,63.9,51,29.94,10.0,East,13.8,20.7,N/A,,Clear,90,2013-07-29 00:55:00
3:01 PM,82.4,64.4,54,29.94,10.0,East,11.5,-,N/A,,Light Drizzle,80,2013-07-29 01:01:00
3:07 PM,82.4,64.4,54,29.94,10.0,East,11.5,-,N/A,,Clear,90,2013-07-29 01:07:00
4:55 PM,79.9,64.9,60,29.93,10.0,ESE,11.5,-,N/A,,Partly Cloudy,110,2013-07-29 02:55:00
5:55 PM,79.0,66.2,65,29.93,10.0,East,11.5,-,N/A,,Mostly Cloudy,90,2013-07-29 03:55:00
6:55 PM,77.0,66.4,70,29.94,10.0,NE,6.9,-,N/A,,Scattered Clouds,40,2013-07-29 04:55:00
7:47 PM,77.0,68.0,74,29.94,10.0,NNW,3.5,-,N/A,,Mostly Cloudy,340,2013-07-29 05:47:00
7:48 PM,75.2,68.0,78,29.94,10.0,NNW,4.6,-,N/A,,Overcast,340,2013-07-29 05:48:00
7:55 PM,75.9,67.6,75,29.94,10.0,North,8.1,-,N/A,,Overcast,350,2013-07-29 05:55:00
7:57 PM,75.2,68.0,78,29.95,10.0,NW,6.9,-,N/A,,Overcast,320,2013-07-29 05:57:00
8:42 PM,75.2,68.0,78,29.95,10.0,Calm,Calm,-,N/A,,Mostly Cloudy,0,2013-07-29 06:42:00
8:54 PM,75.2,68.0,78,29.96,10.0,ENE,6.9,-,N/A,,Mostly Cloudy,70,2013-07-29 06:54:00
8:55 PM,75.7,68.4,78,29.96,10.0,NE,6.9,-,N/A,,Mostly Cloudy,50,2013-07-29 06:55:00
9:10 PM,75.2,68.0,78,29.96,10.0,ENE,9.2,-,N/A,,Scattered Clouds,70,2013-07-29 07:10:00
9:40 PM,75.2,69.8,83,29.96,10.0,NNE,9.2,-,N/A,,Partly Cloudy,30,2013-07-29 07:40:00
9:55 PM,75.2,69.1,81,29.96,10.0,North,8.1,-,N/A,,Partly Cloudy,10,2013-07-29 07:55:00
10:22 PM,75.2,69.8,83,29.96,8.0,Variable,5.8,-,N/A,Rain,Light Rain,0,2013-07-29 08:22:00
10:37 PM,75.2,71.6,89,29.96,8.0,NE,10.4,-,N/A,Rain,Light Rain,50,2013-07-29 08:37:00
10:41 PM,75.2,71.6,89,29.96,8.0,ENE,11.5,-,N/A,,Mostly Cloudy,60,2013-07-29 08:41:00
10:44 PM,73.4,71.6,94,29.96,8.0,NE,9.2,-,N/A,Rain,Light Rain,50,2013-07-29 08:44:00
10:46 PM,73.4,71.6,94,29.96,8.0,NE,9.2,-,N/A,,Mostly Cloudy,40,2013-07-29 08:46:00
10:51 PM,73.4,71.6,94,29.95,10.0,NE,6.9,-,N/A,,Scattered Clouds,40,2013-07-29 08:51:00
10:55 PM,73.8,70.9,91,29.95,10.0,ENE,11.5,-,0.01,,Scattered Clouds,70,2013-07-29 08:55:00
10:59 PM,73.4,71.6,94,29.95,10.0,NE,12.7,-,N/A,,Partly Cloudy,50,2013-07-29 08:59:00
11:00 PM,73.4,71.6,94,29.95,10.0,NE,12.7,-,N/A,,Partly Cloudy,50,2013-07-29 09:00:00
11:08 PM,73.4,71.6,94,29.95,10.0,NNE,8.1,-,N/A,,Light Drizzle,30,2013-07-29 09:08:00
11:17 PM,73.4,71.6,94,29.95,10.0,Variable,3.5,-,N/A,,Clear,0,2013-07-29 09:17:00
11:19 PM,73.4,69.8,88,29.95,10.0,Variable,4.6,-,N/A,,Light Drizzle,0,2013-07-29 09:19:00
11:30 PM,73.4,69.8,88,29.95,10.0,ESE,3.5,-,N/A,,Clear,120,2013-07-29 09:30:00
11:55 PM,73.2,70.5,91,29.94,10.0,NE,5.8,-,0.00,,Clear,40,2013-07-29 09:55:00